User: anonymous   Login
Location: Sungai Laei
(2.6000°N, 113.7167°E)
Time: 23:54:32
(UTC+00:00)
Language:

Ariane H10 - Orbit

View from above orbital plane
View from above orbital plane
View from above satellite
View from above satellite

Ground track
Ground track

The orbit data is extracted from the following two-line orbital elements,

1 15388U 84114C   22224.83446286  .00000051  00000-0  56777-3 0  9997
2 15388   7.2406  84.0565 6917960 288.6850  11.7477  2.68337574266870
Epoch (UTC): 12 August 2022 20:01:37
Eccentricity: 0.6917960
inclination: 7.2406°
perigee height: 364 km
apogee height: 30629 km
right ascension of ascending node: 84.0565°
argument of perigee: 288.6850°
revolutions per day: 2.68337574
mean anomaly at epoch: 11.7477°
orbit number at epoch: 26687

The dashed part of the orbit path shows where the satellite is in the earth's shadow,  

DLR